Location: Balaclava NSW 2575, Australia
(34.4510°S, 150.4953°E)
Time: 01:44:06
(UTC+10:00)

Envisat - Visible Passes

Search period start: 16 May 2021 00:00
Search period end: 26 May 2021 00:00
Orbit: 764 x 766 km, 98.1° (Epoch: 14 May)

Date Brightness Start Highest point End Pass type
(mag) Time Alt. Az. Time Alt. Az. Time Alt. Az.
16 May 3.2 04:30:01 10° NNE 04:35:04 69° ESE 04:37:45 28° S visible
16 May 4.8 06:13:13 10° WNW 06:14:30 11° W 06:15:48 10° WSW visible
16 May 5.2 18:22:13 10° SSW 18:26:23 25° WSW 18:30:31 10° WNW visible
17 May 4.7 03:54:04 10° NE 03:58:27 29° ESE 04:00:16 23° SE visible
17 May 3.9 05:33:05 10° NNW 05:37:22 27° W 05:40:27 16° SW visible
17 May 3.7 17:44:44 10° S 17:49:48 59° WSW 17:54:47 10° NNW visible
18 May 5.8 03:19:45 10° E 03:22:02 13° ESE 03:22:48 13° SE visible
18 May 2.9 04:55:22 10° N 05:00:25 65° W 05:02:59 29° SSW visible
18 May 5.8 18:48:47 10° SSW 18:51:28 14° WSW 18:54:08 10° W visible
19 May 3.7 04:18:43 10° NNE 04:23:39 53° ESE 04:25:31 35° SSE visible
19 May 4.6 06:00:09 10° NW 06:02:56 15° W 06:05:42 10° WSW visible
19 May 4.8 18:10:29 10° S 18:15:01 32° WSW 18:19:31 10° NW visible
20 May 5.1 03:43:08 10° ENE 03:47:05 23° ESE 03:48:04 22° SE visible
20 May 3.6 05:21:14 10° NNW 05:25:50 35° W 05:28:16 23° SW visible
20 May 3.3 17:33:13 10° S 17:38:22 76° WSW 17:43:27 10° NNW visible
21 May 2.9 04:43:51 10° NNE 04:48:57 84° WNW 04:50:49 41° SSW visible
21 May 5.6 18:36:41 10° SSW 18:40:08 18° WSW 18:43:35 10° WNW visible
22 May 4.1 04:07:30 10° NE 04:12:15 41° ESE 04:13:24 36° SE visible
22 May 4.3 05:47:47 10° NW 05:51:23 19° W 05:53:35 15° WSW visible
22 May 4.3 17:58:49 10° S 18:03:38 41° WSW 18:08:23 10° NW visible
23 May 5.4 03:32:21 10° ENE 03:35:45 18° ESE 03:35:59 18° ESE visible
23 May 3.2 05:09:29 10° N 05:14:21 45° W 05:16:10 32° SW visible
23 May 3.0 17:21:45 10° SSE 17:26:56 83° ENE 17:32:02 10° N visible
24 May 3.1 04:32:26 10° NNE 04:37:30 75° ESE 04:38:45 52° S visible
24 May 5.3 18:24:47 10° SSW 18:28:48 23° WSW 18:32:47 10° WNW visible
25 May 4.5 03:56:24 10° NE 04:00:52 32° ESE 04:01:21 31° ESE visible
25 May 4.0 05:35:42 10° NNW 05:39:50 25° W 05:41:32 21° WSW visible
25 May 3.8 17:47:14 10° S 17:52:14 54° WSW 17:57:11 10° NNW visible
